Weather History for Peru, IN

Change the Weather History Date:

Sunday, January 5, 2014

  Actual Average Record
Temperature  
Mean Temperature 22 °F -  
Max Temperature 33 °F 31 °F 57 °F (1998)
Min Temperature 9 °F 20 °F -20 °F (1999)
Degree Days  
Heating Degree Days 44    
Moisture  
Dew Point 27 °F    
Average Humidity 99    
Maximum Humidity 100    
Minimum Humidity 83    
Precipitation  
Precipitation 1.12 in - - ()
Snow  
Snow 0.00 in - - ()
Snow Depth 15.00 in    
Sea Level Pressure  
Sea Level Pressure 29.87 in    
Wind  
Wind Speed 9 mph (WNW)    
Max Wind Speed 28 mph    
Max Gust Speed 36 mph    
Visibility 3 miles    
Events Fog , Rain , Snow    
Averages and records for this station are not official NWS values.
T = Trace of Precipitation, MM = Missing Value Source: NWS Daily Summary

Daily Weather History Graph

Daily Weather History Graph

Search for Another Location

Airport:

Trip Planner

Search our weather history database for the weather conditions in past years. The results will help you decide how hot, cold, wet, or windy it might be!

Date:

Astronomy

Jan. 05, 2014 Rise Set
Actual Time 8:08 AM EST 5:31 PM EST
Civil Twilight 7:37 AM EST 6:02 PM EST
Nautical Twilight 7:03 AM EST 6:36 PM EST
Astronomical Twilight 6:30 AM EST 7:09 PM EST
Moon 10:48 AM EST (1/5) 11:00 PM EST (1/5)
Length of Visible Light 10h 24m
Length of Day
9h 23m
Waxing Crescent, 24% of the Moon is Illuminated
Jan 5
Waxing Crescent
Jan 7
First Quarter
Jan 15
Full
Jan 24
Last Quarter
Jan 30
New

Hourly Weather History & Observations

Time (EST) Temp. Windchill Dew Point Humidity Pressure Visibility Wind Dir Wind Speed Gust Speed Precip Events Conditions
12:38 AM 32.0 °F 24.8 °F 28.4 °F 87% 29.98 in 10.0 mi SW 8.1 mph - N/A   Overcast
12:58 AM 33.4 °F 26.6 °F 28.8 °F 83% 30.02 in 10.0 mi SW 8.1 mph - N/A   Overcast
1:13 AM 32.0 °F 24.8 °F 30.2 °F 93% 29.98 in 10.0 mi SW 8.1 mph - N/A   Overcast
1:38 AM 32.0 °F 24.8 °F 30.2 °F 93% 29.98 in 10.0 mi WSW 8.1 mph - N/A   Overcast
1:58 AM 33.3 °F 26.4 °F 30.4 °F 89% 30.02 in 10.0 mi WSW 8.1 mph - N/A   Overcast
2:13 AM 32.0 °F 24.8 °F 32.0 °F 100% 29.98 in 10.0 mi WSW 8.1 mph - N/A   Overcast
2:27 AM 32.0 °F 24.2 °F 32.0 °F 100% 29.98 in 10.0 mi WSW 9.2 mph - N/A   Overcast
2:38 AM 32.0 °F 24.8 °F 32.0 °F 100% 29.98 in 10.0 mi WSW 8.1 mph - N/A   Overcast
2:58 AM 32.7 °F 25.7 °F 32.7 °F 100% 30.02 in 9.0 mi SW 8.1 mph - 0.00 in   Overcast
3:05 AM 32.0 °F 25.6 °F 32.0 °F 100% 29.98 in 7.0 mi SSW 6.9 mph - N/A Rain Light Freezing Rain
3:20 AM 32.0 °F 26.4 °F 32.0 °F 100% 29.97 in 7.0 mi SSW 5.8 mph - N/A Rain Light Freezing Rain
3:43 AM 32.0 °F 26.4 °F 32.0 °F 100% 29.97 in 7.0 mi South 5.8 mph - N/A   Overcast
3:48 AM 32.0 °F 26.4 °F 32.0 °F 100% 29.97 in 8.0 mi SSW 5.8 mph - N/A   Light Freezing Drizzle
3:58 AM 32.0 °F 27.5 °F 32.0 °F 100% 30.01 in 7.0 mi SSW 4.6 mph - 0.00 in Rain Light Freezing Rain
4:28 AM 32.0 °F 26.4 °F 32.0 °F 100% 29.97 in 5.0 mi SSW 5.8 mph - N/A Rain Light Freezing Rain
4:33 AM 32.0 °F 26.4 °F 32.0 °F 100% 29.96 in 4.0 mi SSW 5.8 mph - N/A Rain Light Freezing Rain
4:35 AM 32.0 °F 26.4 °F 32.0 °F 100% 29.96 in 4.0 mi SSW 5.8 mph - N/A Rain Light Freezing Rain
4:40 AM 32.0 °F 26.4 °F 32.0 °F 100% 29.96 in 4.0 mi SSW 5.8 mph - N/A Rain Light Freezing Rain
4:41 AM 32.0 °F 27.5 °F 32.0 °F 100% 29.96 in 4.0 mi SSW 4.6 mph - N/A Rain Light Freezing Rain
4:46 AM 32.0 °F 27.5 °F 32.0 °F 100% 29.96 in 4.0 mi SSW 4.6 mph - N/A Rain Light Freezing Rain
4:58 AM 32.0 °F 26.4 °F 32.0 °F 100% 29.99 in 4.0 mi SSW 5.8 mph - 0.00 in Rain Light Freezing Rain
5:08 AM 32.0 °F 28.7 °F 32.0 °F 100% 29.94 in 4.0 mi SSW 3.5 mph - N/A Rain Light Freezing Rain
5:17 AM 32.0 °F - 32.0 °F 100% 29.94 in 5.0 mi SW 2.3 mph - N/A   Overcast
5:27 AM 32.0 °F 28.7 °F 32.0 °F 100% 29.94 in 5.0 mi SW 3.5 mph - N/A   Overcast
5:54 AM 32.0 °F - 32.0 °F 100% 29.93 in 5.0 mi Calm Calm - N/A   Overcast
5:58 AM 32.0 °F - 32.0 °F 100% 29.97 in 5.0 mi Calm Calm - 0.00 in   Overcast
6:03 AM 32.0 °F - 32.0 °F 100% 29.93 in 4.0 mi Calm Calm - N/A   Overcast
6:08 AM 32.0 °F - 32.0 °F 100% 29.93 in 5.0 mi Calm Calm - N/A   Overcast
6:18 AM 32.0 °F - 32.0 °F 100% 29.93 in 4.0 mi Calm Calm - N/A Snow Light Snow
6:28 AM 32.0 °F - 32.0 °F 100% 29.93 in 2.5 mi Calm Calm - N/A Snow Light Snow
6:33 AM 32.0 °F - 32.0 °F 100% 29.93 in 2.0 mi Calm Calm - N/A Snow Light Snow
6:38 AM 32.0 °F - 32.0 °F 100% 29.94 in 1.8 mi North 1.2 mph - N/A Snow Light Snow
6:43 AM 32.0 °F - 32.0 °F 100% 29.94 in 1.5 mi NE 2.3 mph - N/A Snow Light Snow
6:48 AM 32.0 °F - 32.0 °F 100% 29.94 in 1.2 mi NE 2.3 mph - N/A Snow Light Snow
6:53 AM 32.0 °F - 32.0 °F 100% 29.94 in 1.2 mi ENE 2.3 mph - N/A Snow Light Snow
6:58 AM 31.8 °F - 31.8 °F 100% 29.98 in 1.0 mi East 2.3 mph - 0.02 in Snow Light Snow
7:58 AM 31.8 °F - 31.8 °F 100% 29.96 in 2.0 mi Calm Calm - 0.04 in Snow Light Snow
8:55 AM 31.5 °F - 31.5 °F 100% 29.94 in 1.0 mi Calm Calm - 0.02 in Snow Light Snow
9:42 AM 32.0 °F - 32.0 °F 100% 29.90 in 0.5 mi Calm Calm - N/A Fog , Snow Light Freezing Fog
9:58 AM 31.1 °F - 31.1 °F 100% 29.93 in 0.5 mi Calm Calm - 0.12 in Fog , Snow Light Freezing Fog
10:29 AM 32.0 °F - 32.0 °F 100% 29.88 in 0.5 mi Calm Calm - N/A Fog , Snow Light Freezing Fog
10:48 AM 32.0 °F - 32.0 °F 100% 29.88 in 0.8 mi Calm Calm - N/A Snow Light Snow
10:58 AM 31.5 °F - 31.5 °F 100% 29.91 in 0.8 mi Calm Calm - 0.11 in Snow Light Snow
11:58 AM 31.5 °F - 31.5 °F 100% 29.84 in 0.5 mi Calm Calm - 0.15 in Fog , Snow Light Freezing Fog
12:29 PM 32.0 °F - 32.0 °F 100% 29.76 in 0.8 mi Calm Calm - N/A Snow Light Snow
12:58 PM 31.5 °F - 31.5 °F 100% 29.77 in 0.8 mi Calm Calm - 0.13 in Snow Light Snow
1:58 PM 31.1 °F - 31.1 °F 100% 29.71 in 0.2 mi Calm Calm - 0.16 in Snow Heavy Snow
2:27 PM 32.0 °F 24.8 °F 32.0 °F 100% 29.67 in 0.1 mi NNE 8.1 mph - N/A Snow Heavy Snow
2:58 PM 30.9 °F 21.7 °F 30.9 °F 100% 29.71 in 0.1 mi NNE 11.5 mph - 0.09 in Snow Heavy Snow
3:58 PM 30.2 °F 20.2 °F 30.2 °F 100% 29.68 in 0.1 mi North 12.7 mph - 0.05 in Fog , Snow Heavy Snow
4:29 PM 28.4 °F 16.6 °F 28.4 °F 100% 29.65 in 0.8 mi North 16.1 mph 25.3 mph N/A Snow Snow
4:58 PM 28.0 °F 13.3 °F 28.0 °F 100% 29.69 in 0.5 mi North 25.3 mph 29.9 mph 0.05 in Snow Heavy Snow
5:23 PM 26.6 °F 12.7 °F 26.6 °F 100% 29.67 in 0.1 mi North 20.7 mph 27.6 mph N/A Snow Heavy Snow
5:58 PM 25.2 °F 10.8 °F 25.2 °F 100% 29.70 in 0.1 mi North 20.7 mph 26.5 mph 0.05 in Snow Heavy Snow
6:07 PM 24.8 °F 11.5 °F 24.8 °F 100% 29.66 in 0.8 mi North 17.3 mph 28.8 mph N/A Snow Heavy Snow
6:17 PM 24.8 °F 10.7 °F 24.8 °F 100% 29.66 in 0.2 mi North 19.6 mph 26.5 mph N/A Snow Heavy Snow
6:58 PM 23.5 °F 9.9 °F 23.5 °F 100% 29.72 in 0.2 mi North 17.3 mph 26.5 mph 0.07 in Snow Heavy Snow
7:58 PM 22.3 °F 6.6 °F 22.3 °F 100% 29.73 in 0.2 mi NNW 21.9 mph 26.5 mph 0.03 in Snow Heavy Snow
8:58 PM 21.7 °F 6.3 °F 21.7 °F 100% 29.75 in 0.2 mi NNW 20.7 mph 31.1 mph 0.02 in Snow Snow
9:03 PM 21.2 °F 6.4 °F 21.2 °F 100% 29.72 in 0.2 mi NNW 18.4 mph 31.1 mph N/A Snow Snow
9:49 PM 23.0 °F 7.2 °F 23.0 °F 100% 29.72 in 1.0 mi NNW 23.0 mph 35.7 mph N/A Snow Snow
9:58 PM 22.8 °F 7.7 °F 22.8 °F 100% 29.78 in 1.0 mi NNW 20.7 mph 32.2 mph 0.01 in Snow Snow
10:13 PM 23.0 °F 6.6 °F 23.0 °F 100% 29.75 in 1.2 mi NW 25.3 mph 31.1 mph N/A Snow Light Snow
10:31 PM 17.6 °F -0.6 °F 17.6 °F 100% 29.77 in 1.2 mi WNW 25.3 mph - N/A Snow Light Snow
10:43 PM 15.8 °F -3.4 °F 15.8 °F 100% 29.78 in 1.0 mi NW 26.5 mph 34.5 mph N/A Snow Light Snow
10:53 PM 15.8 °F -3.4 °F 15.8 °F 100% 29.79 in 0.8 mi NW 26.5 mph 33.4 mph N/A Snow Light Snow
10:58 PM 15.8 °F -3.4 °F 15.8 °F 100% 29.83 in 0.8 mi NW 26.5 mph 34.5 mph 0.00 in Snow Light Snow
11:03 PM 14.0 °F -6.2 °F 14.0 °F 100% 29.80 in 0.8 mi NW 27.6 mph 34.5 mph N/A Snow Light Snow
11:08 PM 14.0 °F -6.2 °F 14.0 °F 100% 29.80 in 1.0 mi NW 27.6 mph 32.2 mph N/A Snow Light Snow
11:23 PM 12.2 °F -7.9 °F 12.2 °F 100% 29.82 in 1.5 mi NW 25.3 mph 33.4 mph N/A Snow Light Snow
11:33 PM 12.2 °F -7.5 °F 10.4 °F 92% 29.83 in 1.8 mi NW 24.2 mph 33.4 mph N/A Snow Light Snow
11:34 PM 12.2 °F -7.9 °F 10.4 °F 92% 29.83 in 1.8 mi WNW 25.3 mph 33.4 mph N/A Snow Light Snow
11:39 PM 10.4 °F -10.3 °F 10.4 °F 100% 29.83 in 2.0 mi WNW 25.3 mph - N/A Snow Light Snow
11:40 PM 10.4 °F -9.9 °F 8.6 °F 92% 29.84 in 2.0 mi WNW 24.2 mph - N/A Snow Light Snow
11:45 PM 10.4 °F -8.6 °F 8.6 °F 92% 29.84 in 1.8 mi WNW 20.7 mph 33.4 mph N/A Snow Light Snow
11:50 PM 10.4 °F -10.3 °F 8.6 °F 92% 29.84 in 1.5 mi WNW 25.3 mph 33.4 mph N/A Snow Light Snow
11:58 PM 9.1 °F -11.2 °F 7.5 °F 93% 29.90 in 1.5 mi WNW 23.0 mph 32.2 mph 0.00 in Snow Light Snow